Regional Weather Roundup
Issued by NWS Northern Indiana

Home | Current Version | Previous Version | Graphics & Text | Print | Product List | Glossary On
Versions: 1 2 3 4 5 6 7 8 9 10 11 12 13 14 15 16 17 18 19 20 21 22 23 24 25 26 27 28 29 30 31 32 33 34 35 36 37 38 39 40 41 42 43 44 45 46 47 48 49 50
000
ASUS43 KIWX 301210
RWRIWX

KIWX WEATHER ROUNDUP
NATIONAL WEATHER SERVICE NORTHERN INDIANA
800 AM EDT SAT MAY 30 2015

NOTE: "FAIR" INDICATES FEW OR NO CLOUDS BELOW 12,000 FEET WITH NO
SIGNIFICANT WEATHER AND/OR OBSTRUCTIONS TO VISIBILITY.

* THESE STATIONS ARE NOT UNDER NWS QUALITY CONTROL. THEY ALSO MAY NOT
  REPORT WEATHER SUCH AS PRECIPITATION OR FOG.

INZ001>027-301300-
NORTHERN INDIANA

CITY           SKY/WX    TMP DP  RH WIND       PRES   REMARKS
GARY*          CLOUDY    70  68  94 CALM      29.98S
VALPARAISO     CLOUDY    68  67  96 CALM      30.00R
6HR MIN TEMP:  68; 6HR MAX TEMP:  69; 6HR PCP:  0.37;

MICHIGAN CITY* HVY RAIN  68  68 100 SW3       29.99S
LAPORTE*       CLOUDY    69  69 100 SW5       30.00S
6HR MIN TEMP:  69; 6HR MAX TEMP:  71; 6HR PCP:  0.08;

KNOX*          CLOUDY    68  68 100 S3        29.99S
SOUTH BEND     CLOUDY    69  67  93 SW6       29.99S
6HR MIN TEMP:  68; 6HR MAX TEMP:  70; 6HR PCP:  0.28;

ELKHART*       CLOUDY    68  66  94 SW5       30.01
GOSHEN         PTSUNNY   70  65  84 W8        30.01R
6HR MIN TEMP:  68; 6HR MAX TEMP:  74;

MONTICELLO*    CLOUDY    68  66  93 S3        30.01R
6HR MIN TEMP:  68; 6HR MAX TEMP:  71;

LOGANSPORT*    CLOUDY    70  63  78 SW8       30.03R
ROCHESTER*     PTSUNNY   73  66  78 SW7       30.02S
WARSAW*        MOSUNNY   70  64  83 W9        30.01S
ANGOLA*        SUNNY     72  63  73 SW6       30.01R
FORT WAYNE     PTSUNNY   70  66  87 S10       30.03R
6HR MIN TEMP:  67; 6HR MAX TEMP:  71;

HUNTINGTON*    CLOUDY    69  66  90 SW5       30.02S
6HR MIN TEMP:  66; 6HR MAX TEMP:  71;

PERU/GRISSOM   MOSUNNY   71  66  86 SW9       30.01R
6HR MIN TEMP:  66; 6HR MAX TEMP:  71;

MARION*        MOSUNNY   69  65  87 S6        30.04S
6HR MIN TEMP:  29; 6HR MAX TEMP:  86;


$$
INZ028>050-301300-
CENTRAL INDIANA

CITY           SKY/WX    TMP DP  RH WIND       PRES   REMARKS
LAFAYETTE      LGT RAIN  68  65  90 S3        30.00S FOG
6HR MIN TEMP:  66; 6HR MAX TEMP:  70; 6HR PCP:  0.01;

KOKOMO*        PTSUNNY   70  61  73 SW8       30.02S
6HR MIN TEMP:  64; 6HR MAX TEMP:  72;

MUNCIE*        PTSUNNY   71  66  84 SW9       30.04S
6HR MIN TEMP:  69; 6HR MAX TEMP:  71;

INDIANAPOLIS   MOSUNNY   70  66  87 S7        30.01S
6HR MIN TEMP:  68; 6HR MAX TEMP:  71;


$$
MIZ043>046-050>051-056>058-064>065-071>073-077>080-301300-
SOUTHWEST LOWER MICHIGAN

CITY           SKY/WX    TMP DP  RH WIND       PRES   REMARKS
BATTLE CREEK   CLOUDY    70  65  84 SW8       29.99R
6HR MIN TEMP:  69; 6HR MAX TEMP:  70;

BENTON HARBOR  LGT RAIN  67  66  97 SW12      29.98R FOG
6HR MIN TEMP:  67; 6HR MAX TEMP:  70; 6HR PCP:  0.04;

COLDWATER*     PTSUNNY   70  64  82 SW7       30.00R
6HR MIN TEMP:  68; 6HR MAX TEMP:  72;

HILLSDALE*     MOSUNNY   71  68  91 SW7       30.01R
6HR MIN TEMP:  69; 6HR MAX TEMP:  72;

HOLLAND        CLOUDY    63  60  90 SW7       29.98R
6HR MIN TEMP:  61; 6HR MAX TEMP:  72;

GRAND RAPIDS   CLOUDY    68  65  90 SW6       29.96R
6HR MIN TEMP:  68; 6HR MAX TEMP:  70;

KALAMAZOO      CLOUDY    69  65  86 SW6       29.99R
6HR MIN TEMP:  69; 6HR MAX TEMP:  70;

STURGIS*       CLOUDY    70  66  88 SW12      30.00R
THREE RIVERS*  HVY RAIN  67  65  93 SW8       30.01R
6HR MIN TEMP:  67; 6HR MAX TEMP:  72;


$$
OHZ001>008-015>018-024>025-301300-
NORTHWEST OHIO

CITY           SKY/WX    TMP DP  RH WIND       PRES   REMARKS
WAUSEON*       FAIR      72  70  94 SW10      30.01S
DEFIANCE       PTSUNNY   71  65  81 SW8       30.02R
6HR MIN TEMP:  68; 6HR MAX TEMP:  72;

FINDLAY        CLOUDY    72  67  84 S10       30.03S
6HR MIN TEMP:  69; 6HR MAX TEMP:  73;

TOLEDO EXPRESS SUNNY     71  65  81 S9        30.01S
6HR MIN TEMP:  67; 6HR MAX TEMP:  72;

TOLEDO METCALF MOSUNNY   72  65  78 SW10      30.02S
6HR MIN TEMP:  70; 6HR MAX TEMP:  73;

LIMA           PTSUNNY   71  66  84 SW8       30.05R
6HR MIN TEMP:  69; 6HR MAX TEMP:  72;


$$
AND FOR LAKE MICHIGAN COASTAL AND OPEN LAKE BUOY OBSERVATIONS

STATION/POSITION TEMP    WIND        PRES    VSBY  WAVE
                 AIR SEA DIR/SP/G                  HT/PER
                 (F)     (DEG/KT/KT) (MB)    (MI)  (FT/S)
CALUMET HARBOR    68     210/  2/  3   N/A
MICHIGAN CITY     67     210/  7/  8   N/A
BURNS HARBOR      67     240/  5/  6 1015.6S
SAINT JOSEPH      64     180/  6/  9 1015.2F
SOUTH LAKE BUOY   49 38  230/  2/  4 1015.2R         1
4 MI NW BRIDGMAN  60 58  240/  4/  4   N/A           1
MICHIGAN CITY     63 56  210/  4/  6   N/A           1

$$
&&



USA.gov is the U.S. government's official web portal to all federal, state and local government web resources and services.